"Sample Date","Sample Time","Sample Value","Units","Flow Rate","Sample Interval","Number Channels","Micron Size 0","Counts/Channel 0","Micron Size 1","Counts/Channel 1","Micron Size 2","Counts/Channel 2","Micron Size 3","Counts/Channel 3","Micron Size 4","Counts/Channel 4","Micron Size 5","Counts/Channel 5","Micron Size 6","Counts/Channel 6","Micron Size 7","Counts/Channel 7","Micron Size 8","Counts/Channel 8","Micron Size 9","Counts/Channel 9","Micron Size 10","Counts/Channel 10","Micron Size 11","Counts/Channel 11","Micron Size 12","Counts/Channel 12","Micron Size 13","Counts/Channel 13","Micron Size 14","Counts/Channel 14","Micron Size 15","Counts/Channel 15","Micron Size 16","Counts/Channel 16","Micron Size 17","Counts/Channel 17","Micron Size 18","Counts/Channel 18","Micron Size 19","Counts/Channel 19","Micron Size 20","Counts/Channel 20","Micron Size 21","Counts/Channel 21","Micron Size 22","Counts/Channel 22","Micron Size 23","Counts/Channel 23","Micron Size 24","Counts/Channel 24","Micron Size 25","Counts/Channel 25","Micron Size 26","Counts/Channel 26","Micron Size 27","Counts/Channel 27","Micron Size 28","Counts/Channel 28","Micron Size 29","Counts/Channel 29","Micron Size 30","Counts/Channel 30","Micron Size 31","Counts/Channel 31"
"04/07/08","22:00:04",14222.000,"cc",28214.832,6.00,6,0.100,9633.000,0.200,1532.000,0.300,1173.000,0.500,1319.000,1.000,565.000,5.000,0
"04/07/08","22:00:10",14664.000,"cc",28296.805,6.00,6,0.100,9705.000,0.200,1517.000,0.300,1297.000,0.500,1522.000,1.000,623.000,5.000,0
"04/07/08","22:00:16",14535.000,"cc",28300.084,6.00,6,0.100,9624.000,0.200,1554.000,0.300,1297.000,0.500,1471.000,1.000,589.000,5.000,0
"04/07/08","22:00:22",14750.000,"cc",28278.365,6.00,6,0.100,9786.000,0.200,1605.000,0.300,1270.000,0.500,1480.000,1.000,609.000,5.000,0
"04/07/08","22:00:28",14987.000,"cc",28287.691,6.00,6,0.100,9768.000,0.200,1715.000,0.300,1347.000,0.500,1516.000,1.000,641.000,5.000,0
"04/07/08","22:00:34",14488.000,"cc",28328.285,6.00,6,0.100,9713.000,0.200,1475.000,0.300,1264.000,0.500,1474.000,1.000,562.000,5.000,0
"04/07/08","22:00:40",14143.000,"cc",28400.736,6.00,6,0.100,9451.000,0.200,1469.000,0.300,1271.000,0.500,1398.000,1.000,554.000,5.000,0
"04/07/08","22:00:46",14532.000,"cc",28262.527,6.00,6,0.100,9741.000,0.200,1470.000,0.300,1313.000,0.500,1420.000,1.000,588.000,5.000,0
"04/07/08","22:00:52",15012.000,"cc",28302.500,6.00,6,0.100,9934.000,0.200,1523.000,0.300,1326.000,0.500,1567.000,1.000,662.000,5.000,0
"04/07/08","22:00:58",14953.000,"cc",28347.596,6.00,6,0.100,9993.000,0.200,1477.000,0.300,1286.000,0.500,1570.000,1.000,627.000,5.000,0
"04/07/08","22:01:04",14500.000,"cc",28379.891,6.00,6,0.100,9821.000,0.200,1495.000,0.300,1219.000,0.500,1373.000,1.000,592.000,5.000,0
"04/07/08","22:01:10",14676.000,"cc",28323.162,6.00,6,0.100,9718.000,0.200,1526.000,0.300,1319.000,0.500,1513.000,1.000,600.000,5.000,0
"04/07/08","22:01:16",14604.000,"cc",28282.563,6.00,6,0.100,9795.000,0.200,1464.000,0.300,1277.000,0.500,1457.000,1.000,611.000,5.000,0
"04/07/08","22:01:22",14384.000,"cc",28358.795,6.00,6,0.100,9601.000,0.200,1494.000,0.300,1219.000,0.500,1478.000,1.000,592.000,5.000,0
"04/07/08","22:01:28",14541.000,"cc",28309.547,6.00,6,0.100,9692.000,0.200,1504.000,0.300,1210.000,0.500,1512.000,1.000,622.000,5.000,1.000
"04/07/08","22:01:34",14449.000,"cc",28349.117,6.00,6,0.100,9700.000,0.200,1405.000,0.300,1302.000,0.500,1456.000,1.000,586.000,5.000,0
"04/07/08","22:01:40",14666.000,"cc",28316.910,6.00,6,0.100,9888.000,0.200,1537.000,0.300,1195.000,0.500,1489.000,1.000,556.000,5.000,1.000
"04/07/08","22:01:46",14596.000,"cc",28336.578,6.00,6,0.100,9827.000,0.200,1472.000,0.300,1247.000,0.500,1464.000,1.000,586.000,5.000,0
"04/07/08","22:01:52",14656.000,"cc",28172.772,6.00,6,0.100,9784.000,0.200,1477.000,0.300,1279.000,0.500,1483.000,1.000,633.000,5.000,0
"04/07/08","22:01:58",14960.000,"cc",28270.311,6.00,6,0.100,9823.000,0.200,1622.000,0.300,1316.000,0.500,1584.000,1.000,615.000,5.000,0
"04/07/08","22:02:04",15050.000,"cc",28352.705,6.00,6,0.100,9909.000,0.200,1582.000,0.300,1339.000,0.500,1531.000,1.000,688.000,5.000,1.000
"04/07/08","22:02:10",15251.000,"cc",28251.479,6.00,6,0.100,9977.000,0.200,1680.000,0.300,1394.000,0.500,1584.000,1.000,616.000,5.000,0
"04/07/08","22:02:16",15443.000,"cc",28373.672,6.00,6,0.100,10047.000,0.200,1647.000,0.300,1418.000,0.500,1705.000,1.000,626.000,5.000,0
"04/07/08","22:02:22",14829.000,"cc",28381.191,6.00,6,0.100,9868.000,0.200,1606.000,0.300,1245.000,0.500,1522.000,1.000,587.000,5.000,1.000
"04/07/08","22:02:28",14441.000,"cc",28344.242,6.00,6,0.100,9679.000,0.200,1455.000,0.300,1219.000,0.500,1476.000,1.000,612.000,5.000,0
"04/07/08","22:02:34",14559.000,"cc",28325.350,6.00,6,0.100,9866.000,0.200,1448.000,0.300,1241.000,0.500,1392.000,1.000,612.000,5.000,0
"04/07/08","22:02:40",14590.000,"cc",28287.217,6.00,6,0.100,9926.000,0.200,1435.000,0.300,1168.000,0.500,1488.000,1.000,573.000,5.000,0
"04/07/08","22:02:46",14374.000,"cc",28256.006,6.00,6,0.100,9552.000,0.200,1513.000,0.300,1267.000,0.500,1436.000,1.000,606.000,5.000,0
"04/07/08","22:02:52",14729.000,"cc",28393.963,6.00,6,0.100,9930.000,0.200,1436.000,0.300,1300.000,0.500,1486.000,1.000,577.000,5.000,0
"04/07/08","22:02:58",14439.000,"cc",28424.512,6.00,6,0.100,9696.000,0.200,1445.000,0.300,1209.000,0.500,1471.000,1.000,618.000,5.000,0
"04/07/08","22:03:04",14218.000,"cc",28251.869,6.00,6,0.100,9651.000,0.200,1469.000,0.300,1162.000,0.500,1377.000,1.000,559.000,5.000,0
"04/07/08","22:03:10",14280.000,"cc",28282.158,6.00,6,0.100,9674.000,0.200,1426.000,0.300,1240.000,0.500,1383.000,1.000,557.000,5.000,0
"04/07/08","22:03:16",14557.000,"cc",28305.967,6.00,6,0.100,9800.000,0.200,1482.000,0.300,1199.000,0.500,1470.000,1.000,606.000,5.000,0
"04/07/08","22:03:22",14148.000,"cc",28346.881,6.00,6,0.100,9516.000,0.200,1464.000,0.300,1202.000,0.500,1375.000,1.000,591.000,5.000,0
"04/07/08","22:03:28",14115.000,"cc",28303.131,6.00,6,0.100,9450.000,0.200,1431.000,0.300,1222.000,0.500,1416.000,1.000,596.000,5.000,0
"04/07/08","22:03:34",13919.000,"cc",28386.107,6.00,6,0.100,9456.000,0.200,1381.000,0.300,1147.000,0.500,1407.000,1.000,528.000,5.000,0
"04/07/08","22:03:40",14043.000,"cc",28235.141,6.00,6,0.100,9463.000,0.200,1449.000,0.300,1148.000,0.500,1431.000,1.000,552.000,5.000,0
"04/07/08","22:03:46",14029.000,"cc",28312.377,6.00,6,0.100,9438.000,0.200,1449.000,0.300,1154.000,0.500,1403.000,1.000,585.000,5.000,0
"04/07/08","22:03:52",14314.000,"cc",28314.012,6.00,6,0.100,9559.000,0.200,1446.000,0.300,1241.000,0.500,1443.000,1.000,625.000,5.000,0
"04/07/08","22:03:58",14497.000,"cc",28319.092,6.00,6,0.100,9806.000,0.200,1468.000,0.300,1229.000,0.500,1412.000,1.000,582.000,5.000,0
"04/07/08","22:04:04",14632.000,"cc",28233.467,6.00,6,0.100,9849.000,0.200,1543.000,0.300,1254.000,0.500,1410.000,1.000,576.000,5.000,0
"04/07/08","22:04:10",14428.000,"cc",28309.490,6.00,6,0.100,9627.000,0.200,1490.000,0.300,1247.000,0.500,1488.000,1.000,576.000,5.000,0
"04/07/08","22:04:16",14391.000,"cc",28352.660,6.00,6,0.100,9486.000,0.200,1549.000,0.300,1278.000,0.500,1500.000,1.000,578.000,5.000,0
"04/07/08","22:04:22",14763.000,"cc",28288.895,6.00,6,0.100,9722.000,0.200,1569.000,0.300,1234.000,0.500,1574.000,1.000,664.000,5.000,0
"04/07/08","22:04:28",15013.000,"cc",28320.008,6.00,6,0.100,10023.000,0.200,1545.000,0.300,1279.000,0.500,1511.000,1.000,654.000,5.000,1.000
"04/07/08","22:04:34",14037.000,"cc",28428.828,6.00,6,0.100,9528.000,0.200,1380.000,0.300,1136.000,0.500,1418.000,1.000,575.000,5.000,0
"04/07/08","22:04:40",14218.000,"cc",28291.365,6.00,6,0.100,9559.000,0.200,1501.000,0.300,1201.000,0.500,1419.000,1.000,538.000,5.000,0
"04/07/08","22:04:46",14514.000,"cc",28195.537,6.00,6,0.100,9717.000,0.200,1467.000,0.300,1209.000,0.500,1518.000,1.000,603.000,5.000,0
"04/07/08","22:04:52",14726.000,"cc",28309.565,6.00,6,0.100,9780.000,0.200,1542.000,0.300,1273.000,0.500,1543.000,1.000,588.000,5.000,0
"04/07/08","22:04:58",14324.000,"cc",28318.467,6.00,6,0.100,9573.000,0.200,1522.000,0.300,1229.000,0.500,1455.000,1.000,545.000,5.000,0
"04/07/08","22:05:04",14057.000,"cc",28374.305,6.00,6,0.100,9396.000,0.200,1429.000,0.300,1217.000,0.500,1436.000,1.000,579.000,5.000,0
"04/07/08","22:05:10",14541.000,"cc",28250.836,6.00,6,0.100,9667.000,0.200,1469.000,0.300,1255.000,0.500,1500.000,1.000,650.000,5.000,0
"04/07/08","22:05:16",14596.000,"cc",28313.953,6.00,6,0.100,9761.000,0.200,1478.000,0.300,1265.000,0.500,1511.000,1.000,581.000,5.000,0
"04/07/08","22:05:22",14280.000,"cc",28392.635,6.00,6,0.100,9511.000,0.200,1490.000,0.300,1254.000,0.500,1423.000,1.000,601.000,5.000,1.000
"04/07/08","22:05:28",14391.000,"cc",28301.537,6.00,6,0.100,9698.000,0.200,1492.000,0.300,1189.000,0.500,1393.000,1.000,619.000,5.000,0
"04/07/08","22:05:34",14101.000,"cc",28290.504,6.00,6,0.100,9605.000,0.200,1365.000,0.300,1165.000,0.500,1394.000,1.000,572.000,5.000,0
"04/07/08","22:05:40",14178.000,"cc",28277.869,6.00,6,0.100,9454.000,0.200,1414.000,0.300,1280.000,0.500,1473.000,1.000,557.000,5.000,0
"04/07/08","22:05:46",14605.000,"cc",28358.242,6.00,6,0.100,9697.000,0.200,1546.000,0.300,1293.000,0.500,1467.000,1.000,602.000,5.000,0
"04/07/08","22:05:52",14531.000,"cc",28511.893,6.00,6,0.100,9625.000,0.200,1534.000,0.300,1237.000,0.500,1522.000,1.000,613.000,5.000,0
"04/07/08","22:05:58",14572.000,"cc",28264.398,6.00,6,0.100,9652.000,0.200,1569.000,0.300,1233.000,0.500,1498.000,1.000,620.000,5.000,0
"04/07/08","22:06:04",14863.000,"cc",28268.109,6.00,6,0.100,9850.000,0.200,1569.000,0.300,1276.000,0.500,1510.000,1.000,658.000,5.000,0
"04/07/08","22:06:10",14661.000,"cc",28278.014,6.00,6,0.100,9727.000,0.200,1576.000,0.300,1299.000,0.500,1456.000,1.000,603.000,5.000,0
"04/07/08","22:06:16",14910.000,"cc",28259.486,6.00,6,0.100,9870.000,0.200,1547.000,0.300,1304.000,0.500,1569.000,1.000,620.000,5.000,0
"04/07/08","22:06:22",14242.000,"cc",28300.213,6.00,6,0.100,9690.000,0.200,1417.000,0.300,1128.000,0.500,1452.000,1.000,555.000,5.000,0
"04/07/08","22:06:28",14245.000,"cc",28387.818,6.00,6,0.100,9608.000,0.200,1410.000,0.300,1193.000,0.500,1446.000,1.000,588.000,5.000,0
"04/07/08","22:06:34",14220.000,"cc",28316.371,6.00,6,0.100,9483.000,0.200,1452.000,0.300,1200.000,0.500,1516.000,1.000,569.000,5.000,0
"04/07/08","22:06:40",14355.000,"cc",28281.465,6.00,6,0.100,9557.000,0.200,1445.000,0.300,1172.000,0.500,1557.000,1.000,624.000,5.000,0
"04/07/08","22:06:46",14726.000,"cc",28286.617,6.00,6,0.100,9789.000,0.200,1529.000,0.300,1283.000,0.500,1522.000,1.000,603.000,5.000,0
"04/07/08","22:06:52",14853.000,"cc",28353.936,6.00,6,0.100,9773.000,0.200,1593.000,0.300,1340.000,0.500,1593.000,1.000,554.000,5.000,0
"04/07/08","22:06:58",14919.000,"cc",28394.281,6.00,6,0.100,9726.000,0.200,1604.000,0.300,1358.000,0.500,1597.000,1.000,634.000,5.000,0
"04/07/08","22:07:04",14543.000,"cc",28387.537,6.00,6,0.100,9645.000,0.200,1568.000,0.300,1250.000,0.500,1487.000,1.000,593.000,5.000,0
"04/07/08","22:07:10",13966.000,"cc",28286.426,6.00,6,0.100,9363.000,0.200,1436.000,0.300,1235.000,0.500,1361.000,1.000,571.000,5.000,0
"04/07/08","22:07:16",13734.000,"cc",28258.385,6.00,6,0.100,9360.000,0.200,1325.000,0.300,1091.000,0.500,1352.000,1.000,606.000,5.000,0
"04/07/08","22:07:22",13965.000,"cc",28331.205,6.00,6,0.100,9375.000,0.200,1395.000,0.300,1175.000,0.500,1462.000,1.000,558.000,5.000,0
"04/07/08","22:07:28",14158.000,"cc",28154.332,6.00,6,0.100,9452.000,0.200,1496.000,0.300,1182.000,0.500,1469.000,1.000,559.000,5.000,0
"04/07/08","22:07:34",13643.000,"cc",28317.156,6.00,6,0.100,9262.000,0.200,1420.000,0.300,1105.000,0.500,1320.000,1.000,536.000,5.000,0
"04/07/08","22:07:40",14080.000,"cc",28341.514,6.00,6,0.100,9481.000,0.200,1423.000,0.300,1148.000,0.500,1473.000,1.000,555.000,5.000,0
"04/07/08","22:07:46",14155.000,"cc",28422.520,6.00,6,0.100,9487.000,0.200,1436.000,0.300,1233.000,0.500,1423.000,1.000,576.000,5.000,0
"04/07/08","22:07:52",14209.000,"cc",28388.486,6.00,6,0.100,9415.000,0.200,1506.000,0.300,1216.000,0.500,1499.000,1.000,573.000,5.000,0
"04/07/08","22:07:58",14407.000,"cc",28335.203,6.00,6,0.100,9506.000,0.200,1523.000,0.300,1247.000,0.500,1501.000,1.000,630.000,5.000,0
"04/07/08","22:08:04",14307.000,"cc",28214.049,6.00,6,0.100,9443.000,0.200,1508.000,0.300,1276.000,0.500,1479.000,1.000,601.000,5.000,0
"04/07/08","22:08:10",14452.000,"cc",28229.154,6.00,6,0.100,9635.000,0.200,1466.000,0.300,1229.000,0.500,1472.000,1.000,650.000,5.000,0
"04/07/08","22:08:16",14163.000,"cc",28250.590,6.00,6,0.100,9414.000,0.200,1465.000,0.300,1260.000,0.500,1426.000,1.000,598.000,5.000,0
"04/07/08","22:08:22",14685.000,"cc",28320.164,6.00,6,0.100,9557.000,0.200,1543.000,0.300,1367.000,0.500,1569.000,1.000,649.000,5.000,0
"04/07/08","22:08:28",14457.000,"cc",28325.840,6.00,6,0.100,9549.000,0.200,1518.000,0.300,1272.000,0.500,1493.000,1.000,625.000,5.000,0
"04/07/08","22:08:34",14061.000,"cc",28296.068,6.00,6,0.100,9413.000,0.200,1370.000,0.300,1267.000,0.500,1440.000,1.000,571.000,5.000,0
"04/07/08","22:08:40",14580.000,"cc",28379.656,6.00,6,0.100,9763.000,0.200,1470.000,0.300,1214.000,0.500,1542.000,1.000,591.000,5.000,0
"04/07/08","22:08:46",14052.000,"cc",28320.834,6.00,6,0.100,9298.000,0.200,1406.000,0.300,1236.000,0.500,1497.000,1.000,615.000,5.000,0
"04/07/08","22:08:52",14451.000,"cc",28286.572,6.00,6,0.100,9664.000,0.200,1481.000,0.300,1272.000,0.500,1488.000,1.000,545.000,5.000,1.000
"04/07/08","22:08:58",14284.000,"cc",28327.148,6.00,6,0.100,9387.000,0.200,1503.000,0.300,1263.000,0.500,1531.000,1.000,600.000,5.000,0
"04/07/08","22:09:04",14830.000,"cc",28311.141,6.00,6,0.100,9578.000,0.200,1654.000,0.300,1349.000,0.500,1618.000,1.000,631.000,5.000,0
"04/07/08","22:09:10",14631.000,"cc",28454.441,6.00,6,0.100,9591.000,0.200,1574.000,0.300,1314.000,0.500,1535.000,1.000,617.000,5.000,0
"04/07/08","22:09:16",15290.000,"cc",28260.359,6.00,6,0.100,9902.000,0.200,1559.000,0.300,1416.000,0.500,1764.000,1.000,649.000,5.000,0
"04/07/08","22:09:22",14942.000,"cc",28343.621,6.00,6,0.100,9747.000,0.200,1638.000,0.300,1355.000,0.500,1561.000,1.000,641.000,5.000,0
"04/07/08","22:09:28",14521.000,"cc",28245.242,6.00,6,0.100,9587.000,0.200,1524.000,0.300,1278.000,0.500,1541.000,1.000,591.000,5.000,0
"04/07/08","22:09:34",14607.000,"cc",28297.158,6.00,6,0.100,9510.000,0.200,1529.000,0.300,1327.000,0.500,1629.000,1.000,612.000,5.000,0
"04/07/08","22:09:40",14810.000,"cc",28326.598,6.00,6,0.100,9689.000,0.200,1551.000,0.300,1319.000,0.500,1614.000,1.000,637.000,5.000,0
"04/07/08","22:09:46",14839.000,"cc",28182.309,6.00,6,0.100,9755.000,0.200,1587.000,0.300,1316.000,0.500,1539.000,1.000,642.000,5.000,0
"04/07/08","22:09:52",14589.000,"cc",28372.055,6.00,6,0.100,9542.000,0.200,1540.000,0.300,1351.000,0.500,1537.000,1.000,619.000,5.000,0
"04/07/08","22:09:58",14768.000,"cc",28434.691,6.00,6,0.100,9803.000,0.200,1533.000,0.300,1292.000,0.500,1518.000,1.000,622.000,5.000,0
"04/07/08","22:10:04",14208.000,"cc",28329.166,6.00,6,0.100,9283.000,0.200,1553.000,0.300,1275.000,0.500,1475.000,1.000,622.000,5.000,0
"04/07/08","22:10:10",14526.000,"cc",28319.061,6.00,6,0.100,9606.000,0.200,1576.000,0.300,1284.000,0.500,1435.000,1.000,625.000,5.000,0
"04/07/08","22:10:16",14646.000,"cc",28269.027,6.00,6,0.100,9559.000,0.200,1588.000,0.300,1265.000,0.500,1560.000,1.000,674.000,5.000,0
"04/07/08","22:10:22",14455.000,"cc",28265.873,6.00,6,0.100,9529.000,0.200,1569.000,0.300,1270.000,0.500,1486.000,1.000,601.000,5.000,0
"04/07/08","22:10:28",14587.000,"cc",28263.348,6.00,6,0.100,9586.000,0.200,1511.000,0.300,1347.000,0.500,1549.000,1.000,594.000,5.000,0
"04/07/08","22:10:34",14183.000,"cc",28352.588,6.00,6,0.100,9488.000,0.200,1451.000,0.300,1216.000,0.500,1446.000,1.000,582.000,5.000,0
"04/07/08","22:10:40",14585.000,"cc",28268.602,6.00,6,0.100,9592.000,0.200,1561.000,0.300,1270.000,0.500,1558.000,1.000,604.000,5.000,0
"04/07/08","22:10:46",13963.000,"cc",28445.102,6.00,6,0.100,9212.000,0.200,1459.000,0.300,1254.000,0.500,1409.000,1.000,629.000,5.000,0
"04/07/08","22:10:52",14114.000,"cc",28286.568,6.00,6,0.100,9247.000,0.200,1489.000,0.300,1332.000,0.500,1454.000,1.000,592.000,5.000,0
"04/07/08","22:10:58",13898.000,"cc",28322.242,6.00,6,0.100,9191.000,0.200,1461.000,0.300,1197.000,0.500,1443.000,1.000,606.000,5.000,0
"04/07/08","22:11:04",14267.000,"cc",28238.897,6.00,6,0.100,9351.000,0.200,1520.000,0.300,1297.000,0.500,1480.000,1.000,619.000,5.000,0
"04/07/08","22:11:10",14572.000,"cc",28238.268,6.00,6,0.100,9510.000,0.200,1544.000,0.300,1363.000,0.500,1573.000,1.000,581.000,5.000,1.000
"04/07/08","22:11:16",14860.000,"cc",28207.451,6.00,6,0.100,9607.000,0.200,1656.000,0.300,1305.000,0.500,1680.000,1.000,612.000,5.000,0
"04/07/08","22:11:22",14685.000,"cc",28336.236,6.00,6,0.100,9573.000,0.200,1609.000,0.300,1346.000,0.500,1528.000,1.000,629.000,5.000,0
"04/07/08","22:11:28",14990.000,"cc",28373.756,6.00,6,0.100,9631.000,0.200,1579.000,0.300,1369.000,0.500,1718.000,1.000,693.000,5.000,0
"04/07/08","22:11:34",14772.000,"cc",28377.666,6.00,6,0.100,9519.000,0.200,1633.000,0.300,1339.000,0.500,1630.000,1.000,651.000,5.000,0
"04/07/08","22:11:40",14566.000,"cc",28411.090,6.00,6,0.100,9487.000,0.200,1565.000,0.300,1333.000,0.500,1570.000,1.000,611.000,5.000,0
"04/07/08","22:11:46",14667.000,"cc",28280.367,6.00,6,0.100,9582.000,0.200,1556.000,0.300,1326.000,0.500,1552.000,1.000,651.000,5.000,0
"04/07/08","22:11:52",14280.000,"cc",28313.746,6.00,6,0.100,9329.000,0.200,1529.000,0.300,1234.000,0.500,1529.000,1.000,659.000,5.000,0
"04/07/08","22:11:58",14221.000,"cc",28226.055,6.00,6,0.100,9241.000,0.200,1522.000,0.300,1267.000,0.500,1526.000,1.000,665.000,5.000,0
"04/07/08","22:12:04",14814.000,"cc",28246.998,6.00,6,0.100,9554.000,0.200,1657.000,0.300,1396.000,0.500,1586.000,1.000,621.000,5.000,0
"04/07/08","22:12:10",14767.000,"cc",28248.354,6.00,6,0.100,9372.000,0.200,1642.000,0.300,1408.000,0.500,1716.000,1.000,629.000,5.000,0
"04/07/08","22:12:16",14288.000,"cc",28307.926,6.00,6,0.100,9329.000,0.200,1535.000,0.300,1312.000,0.500,1450.000,1.000,662.000,5.000,0
"04/07/08","22:12:22",14417.000,"cc",28384.703,6.00,6,0.100,9372.000,0.200,1599.000,0.300,1319.000,0.500,1483.000,1.000,644.000,5.000,0
"04/07/08","22:12:28",14055.000,"cc",28391.346,6.00,6,0.100,9288.000,0.200,1493.000,0.300,1180.000,0.500,1531.000,1.000,563.000,5.000,0
"04/07/08","22:12:34",13956.000,"cc",28253.529,6.00,6,0.100,9251.000,0.200,1469.000,0.300,1205.000,0.500,1449.000,1.000,582.000,5.000,0
"04/07/08","22:12:40",13956.000,"cc",28341.127,6.00,6,0.100,9232.000,0.200,1524.000,0.300,1162.000,0.500,1472.000,1.000,566.000,5.000,0
"04/07/08","22:12:46",13817.000,"cc",28455.215,6.00,6,0.100,9045.000,0.200,1503.000,0.300,1190.000,0.500,1452.000,1.000,627.000,5.000,0
"04/07/08","22:12:52",13738.000,"cc",28251.166,6.00,6,0.100,9011.000,0.200,1431.000,0.300,1252.000,0.500,1486.000,1.000,558.000,5.000,0
"04/07/08","22:12:58",14232.000,"cc",28263.125,6.00,6,0.100,9248.000,0.200,1521.000,0.300,1321.000,0.500,1555.000,1.000,587.000,5.000,0
"04/07/08","22:13:04",14033.000,"cc",28297.174,6.00,6,0.100,9174.000,0.200,1542.000,0.300,1260.000,0.500,1456.000,1.000,601.000,5.000,0
"04/07/08","22:13:10",13696.000,"cc",28401.090,6.00,6,0.100,9055.000,0.200,1408.000,0.300,1158.000,0.500,1476.000,1.000,599.000,5.000,0
"04/07/08","22:13:16",13717.000,"cc",28389.703,6.00,6,0.100,9161.000,0.200,1373.000,0.300,1150.000,0.500,1441.000,1.000,592.000,5.000,0
"04/07/08","22:13:22",13713.000,"cc",28264.766,6.00,6,0.100,9055.000,0.200,1429.000,0.300,1185.000,0.500,1418.000,1.000,626.000,5.000,0
"04/07/08","22:13:28",14057.000,"cc",28255.141,6.00,6,0.100,9113.000,0.200,1499.000,0.300,1281.000,0.500,1514.000,1.000,650.000,5.000,0
"04/07/08","22:13:34",14294.000,"cc",28231.039,6.00,6,0.100,9385.000,0.200,1524.000,0.300,1314.000,0.500,1463.000,1.000,607.000,5.000,1.000
"04/07/08","22:13:40",14116.000,"cc",28323.201,6.00,6,0.100,9116.000,0.200,1484.000,0.300,1247.000,0.500,1584.000,1.000,685.000,5.000,0
"04/07/08","22:13:46",14380.000,"cc",28266.361,6.00,6,0.100,9329.000,0.200,1572.000,0.300,1326.000,0.500,1553.000,1.000,600.000,5.000,0
"04/07/08","22:13:52",14271.000,"cc",28313.268,6.00,6,0.100,9358.000,0.200,1476.000,0.300,1292.000,0.500,1545.000,1.000,599.000,5.000,1.000
"04/07/08","22:13:58",14191.000,"cc",28414.373,6.00,6,0.100,9236.000,0.200,1556.000,0.300,1298.000,0.500,1492.000,1.000,609.000,5.000,0
"04/07/08","22:14:04",13872.000,"cc",28354.072,6.00,6,0.100,9067.000,0.200,1474.000,0.300,1267.000,0.500,1434.000,1.000,629.000,5.000,1.000
"04/07/08","22:14:10",13835.000,"cc",28273.412,6.00,6,0.100,9060.000,0.200,1471.000,0.300,1202.000,0.500,1503.000,1.000,599.000,5.000,0
"04/07/08","22:14:16",13902.000,"cc",28311.461,6.00,6,0.100,9169.000,0.200,1429.000,0.300,1177.000,0.500,1517.000,1.000,610.000,5.000,0
"04/07/08","22:14:22",13789.000,"cc",28291.988,6.00,6,0.100,9062.000,0.200,1472.000,0.300,1221.000,0.500,1398.000,1.000,636.000,5.000,0
"04/07/08","22:14:28",14082.000,"cc",28275.924,6.00,6,0.100,9141.000,0.200,1482.000,0.300,1227.000,0.500,1595.000,1.000,637.000,5.000,0
"04/07/08","22:14:34",13837.000,"cc",28292.137,6.00,6,0.100,8954.000,0.200,1470.000,0.300,1333.000,0.500,1461.000,1.000,619.000,5.000,0
"04/07/08","22:14:40",13679.000,"cc",28309.986,6.00,6,0.100,8956.000,0.200,1433.000,0.300,1225.000,0.500,1460.000,1.000,605.000,5.000,0
"04/07/08","22:14:46",13952.000,"cc",28299.258,6.00,6,0.100,9242.000,0.200,1502.000,0.300,1164.000,0.500,1453.000,1.000,591.000,5.000,0
"04/07/08","22:14:51",13726.000,"cc",28374.801,6.00,6,0.100,9013.000,0.200,1396.000,0.300,1293.000,0.500,1382.000,1.000,641.000,5.000,1.000
"04/07/08","22:14:57",13697.000,"cc",28258.299,6.00,6,0.100,8951.000,0.200,1454.000,0.300,1264.000,0.500,1413.000,1.000,615.000,5.000,0
"04/07/08","22:15:03",13554.000,"cc",28356.482,6.00,6,0.100,8785.000,0.200,1472.000,0.300,1238.000,0.500,1470.000,1.000,589.000,5.000,0
"04/07/08","22:15:09",13708.000,"cc",28320.475,6.00,6,0.100,8967.000,0.200,1446.000,0.300,1224.000,0.500,1426.000,1.000,645.000,5.000,0
"04/07/08","22:15:15",14075.000,"cc",28372.139,6.00,6,0.100,9029.000,0.200,1474.000,0.300,1362.000,0.500,1553.000,1.000,657.000,5.000,0
"04/07/08","22:15:21",14925.000,"cc",28262.977,6.00,6,0.100,9353.000,0.200,1714.000,0.300,1485.000,0.500,1672.000,1.000,701.000,5.000,0
"04/07/08","22:15:27",13916.000,"cc",28231.061,6.00,6,0.100,8988.000,0.200,1539.000,0.300,1242.000,0.500,1546.000,1.000,601.000,5.000,0
"04/07/08","22:15:33",13768.000,"cc",28292.572,6.00,6,0.100,8966.000,0.200,1485.000,0.300,1232.000,0.500,1482.000,1.000,603.000,5.000,0
"04/07/08","22:15:39",13773.000,"cc",28420.738,6.00,6,0.100,9029.000,0.200,1426.000,0.300,1225.000,0.500,1483.000,1.000,610.000,5.000,0
"04/07/08","22:15:45",13720.000,"cc",28362.389,6.00,6,0.100,8942.000,0.200,1508.000,0.300,1201.000,0.500,1472.000,1.000,597.000,5.000,0
"04/07/08","22:15:51",13854.000,"cc",28347.723,6.00,6,0.100,9039.000,0.200,1516.000,0.300,1222.000,0.500,1443.000,1.000,634.000,5.000,0
"04/07/08","22:15:57",13802.000,"cc",28287.988,6.00,6,0.100,8895.000,0.200,1591.000,0.300,1203.000,0.500,1499.000,1.000,614.000,5.000,0
"04/07/08","22:16:03",13700.000,"cc",28394.334,6.00,6,0.100,8956.000,0.200,1459.000,0.300,1160.000,0.500,1489.000,1.000,636.000,5.000,0
"04/07/08","22:16:09",13669.000,"cc",28222.664,6.00,6,0.100,8853.000,0.200,1437.000,0.300,1245.000,0.500,1572.000,1.000,562.000,5.000,0
"04/07/08","22:16:15",14025.000,"cc",28296.490,6.00,6,0.100,9183.000,0.200,1443.000,0.300,1241.000,0.500,1540.000,1.000,618.000,5.000,0
"04/07/08","22:16:21",14312.000,"cc",28299.531,6.00,6,0.100,9139.000,0.200,1565.000,0.300,1445.000,0.500,1555.000,1.000,608.000,5.000,0
"04/07/08","22:16:27",14450.000,"cc",28292.285,6.00,6,0.100,9283.000,0.200,1561.000,0.300,1379.000,0.500,1617.000,1.000,610.000,5.000,0